SL-12 DEB, 29414

Orbit data source: Space-Track

SL-12 DEB, 29414 is space debris in HEO originally from a launch on Wed, 31 May 1989 UTC launched from the Tyuratam Missile And Space Complex (TTMTR). Debris objects in space refer to the collection of defunct objects orbiting the Earth. Examples of debris include non-operational satellites, rocket bodies, and fragments generated from explosions, collisions, or faulty payload assembly.

Loading next visibility...
Identifier
29414, 1989-039BS
Orbit
HEO
Country
Flag of CISCIS
Related business
Manufacturer
Unknown
Mission
Spacecraft
Bus & Motor
Unknown
Mass
Unknown
Launch date (UTC)
1989-05-31 (37 years ago)
Launch vehicle
Unknown
Launch site
Tyuratam Missile And Space Complex (TTMTR)
Object type
Payload
Rocket body
Debris
Shape & HBR
Unknown shape, 0.1 m
Radar Cross Section
Small (<0.1 m²)

Expand to show TLE details & history
Last TLE update: 17 hours ago

TLE from 17 hours ago
0 SL-12 DEB
1 29414U 89039BS  25342.32814717  .00000772  00000-0  36593-2 0  9992
2 29414  65.1503 341.3212 5358696  86.3858 330.5200  4.69998103208291
Epoch: 2025-12-08T07:52Z
TLE epoch observation values (Epoch: 2025-12-08T07:52:31.915Z)
Latitude
-0.0001°
Longitude
145.85442°
Altitude
3,989.363 km
Speed
7.102 km/s
True Right ascension
22h 45m 15s
True Declination
0° 00' 00"
Sunlit
Object was in daylight at epoch
Visualization orbit readout
Latitude
Unknown
Longitude
Unknown
Altitude
Unknown
Speed
Unknown
Apparent Right ascension
Unknown
Apparent Declination
Unknown
Sunlit
N/A
Visualization observer readout
Local Sidereal Time
23:32:49
Azimuth
Unknown
Elevation
Unknown
Doppler factor
Unknown
Orbital elements
Apogee altitude
16,742.125 km
Perigee altitude
608.665 km
Semi-major axis
15,053.532 km
Eccentricity
0.53587
Inclination
65.1503°
RAAN
341.3212°
Arg. of periapsis
86.3858°
True anomaly
273.77487°
Mean anomaly
330.52°
Eccentric anomaly
305.53508°
Mean motion
1.17513 °/min
Orbital period
306.35 mins
BSTAR
0.0036593
Loading maneuver chart data...
Computing Atmospheric mass density...

Documentation

Showing up to 5 results
|